Terminal Aerodrome Forecast
Issued by NWS

Home | Current Version | Previous Version | Text Only | Print | Product List | Glossary On
Versions: 1 2 3 4 5 6 7 8 9 10 11 12 13 14 15 16 17 18
976
FTUS46 KLOX 300334 AAA
TAFPRB
TAF AMD
KPRB 300334Z 3004/3024 20010KT P6SM SKC
     FM300800 VRB03KT P6SM SKC
     FM301200 VRB03KT 5SM HZ OVC007
     FM301700 20008KT P6SM SKC
     FM302200 22015G20KT P6SM SKC=

USA.gov is the U.S. government's official web portal to all federal, state and local government web resources and services.